Back to catalog

LUCY

AliveScienceVLEO
NORAD 49328·PAYLOAD·🇺🇸 United States

Launched Oct 16, 2021 from Cape Canaveral Space Force Station

Loading…

Next Passes (next 24 hours)

TLE

StaleSource: Space-Track

Epoch: Oct 16, 2021, 09:47 UTC

1 49328U 21093A   21289.40775685  .00002371 -74891-5  00000-0 0  9993
2 49328  28.4700 357.4008 0105000 216.7000 268.5023 16.15960640    02

Track LUCY in real time with AllMySat

Download on the App Store